| time (UTC) | temp F | wind direction | speed MPH | gust MPH | rain 1hr in | rain 24hr in | rain mn in | humidity % | barometer mb |
| 20260508135003 | 37 | 5 | 255.0 | 255.0 | 0.00 | 0.00 | 0.00 | 94 | 1027.3 |
| 20260508134004 | 37 | 5 | 255.0 | 255.0 | 0.00 | 0.00 | 0.00 | 94 | 1027.3 |
| 20260508133013 | 37 | 5 | 255.0 | 255.0 | 0.00 | 0.00 | 0.00 | 94 | 1027.3 |
| 20260508132003 | 37 | 5 | 255.0 | 255.0 | 0.00 | 0.00 | 0.00 | 94 | 1027.3 |
| 20260508131003 | 37 | 5 | 255.0 | 255.0 | 0.00 | 0.00 | 0.00 | 94 | 1027.3 |
| 20260508130208 | 37 | 5 | 255.0 | 255.0 | 0.00 | 0.00 | 0.00 | 94 | 1027.3 |
| 20260508125003 | 37 | 5 | 255.0 | 255.0 | 0.00 | 0.00 | 0.00 | 94 | 1027.3 |
| 20260508124003 | 37 | 5 | 255.0 | 255.0 | 0.00 | 0.00 | 0.00 | 94 | 1027.3 |
| 20260508123003 | 37 | 5 | 255.0 | 255.0 | 0.00 | 0.00 | 0.00 | 94 | 1027.3 |
| 20260508122004 | 37 | 5 | 255.0 | 255.0 | 0.00 | 0.00 | 0.00 | 94 | 1027.3 |
| 20260508121004 | 37 | 5 | 255.0 | 255.0 | 0.00 | 0.00 | 0.00 | 94 | 1027.3 |
| 20260508115219 | 37 | 5 | 255.0 | 255.0 | 0.00 | 0.00 | 0.00 | 94 | 1027.3 |
| 20260508114003 | 37 | 5 | 255.0 | 255.0 | 0.00 | 0.00 | 0.00 | 94 | 1027.3 |
| 20260508113005 | 37 | 5 | 255.0 | 255.0 | 0.00 | 0.00 | 0.00 | 94 | 1027.3 |
| 20260508110218 | 37 | 5 | 255.0 | 255.0 | 0.00 | 0.00 | 0.00 | 94 | 1027.3 |
| 20260508105004 | 37 | 5 | 255.0 | 255.0 | 0.00 | 0.00 | 0.00 | 94 | 1027.3 |
| 20260508104004 | 37 | 5 | 255.0 | 255.0 | 0.00 | 0.00 | 0.00 | 94 | 1027.3 |
| 20260508103004 | 37 | 5 | 255.0 | 255.0 | 0.00 | 0.00 | 0.00 | 94 | 1027.3 |
| 20260508102004 | 37 | 5 | 255.0 | 255.0 | 0.00 | 0.00 | 0.00 | 94 | 1027.3 |
| 20260508101004 | 37 | 5 | 255.0 | 255.0 | 0.00 | 0.00 | 0.00 | 94 | 1027.3 |
| 20260508095005 | 37 | 5 | 255.0 | 255.0 | 0.00 | 0.00 | 0.00 | 94 | 1027.3 |
| 20260508093003 | 37 | 5 | 255.0 | 255.0 | 0.00 | 0.00 | 0.00 | 94 | 1027.3 |
| 20260508092009 | 37 | 5 | 255.0 | 255.0 | 0.00 | 0.00 | 0.00 | 94 | 1027.3 |
| 20260508091005 | 37 | 5 | 0.0 | 0.0 | 0.00 | 0.00 | 0.00 | 94 | 1027.3 |
| 20260508090005 | 38 | 6 | 0.0 | 0.0 | 0.00 | 0.00 | 0.00 | 94 | 1027.3 |
| 20260508084004 | 39 | 6 | 0.0 | 1.0 | 0.00 | 0.00 | 0.00 | 94 | 1027.3 |
| 20260508083005 | 39 | 358 | 0.0 | 2.0 | 0.00 | 0.00 | 0.00 | 94 | 1027.3 |
| 20260508082005 | 39 | 229 | 0.0 | 0.0 | 0.00 | 0.00 | 0.00 | 94 | 1027.3 |
| 20260508081004 | 40 | 229 | 0.0 | 0.0 | 0.00 | 0.00 | 0.00 | 94 | 1027.3 |
| 20260508080005 | 41 | 229 | 0.0 | 0.0 | 0.00 | 0.00 | 0.00 | 94 | 1027.3 |
| 20260508075005 | 42 | 229 | 0.0 | 0.0 | 0.00 | 0.00 | 0.00 | 94 | 1027.3 |
| 20260508074004 | 43 | 229 | 0.0 | 0.0 | 0.00 | 0.00 | 0.00 | 94 | 1027.3 |
| 20260508072004 | 43 | 229 | 0.0 | 0.0 | 0.00 | 0.00 | 0.00 | 94 | 1027.3 |
| 20260508064004 | 45 | 229 | 0.0 | 0.0 | 0.00 | 0.00 | 0.00 | 94 | 1027.3 |
| 20260508063003 | 46 | 229 | 0.0 | 0.0 | 0.00 | 0.00 | 0.00 | 94 | 1027.3 |
| 20260508062004 | 46 | 229 | 0.0 | 0.0 | 0.00 | 0.00 | 0.00 | 94 | 1027.3 |
| 20260508055005 | 46 | 224 | 0.0 | 2.0 | 0.00 | 0.00 | 0.00 | 94 | 1027.3 |
| 20260508053005 | 47 | 238 | 0.0 | 0.0 | 0.00 | 0.00 | 0.00 | 94 | 1027.3 |
| 20260508052003 | 47 | 225 | 0.0 | 1.0 | 0.00 | 0.00 | 0.00 | 94 | 1027.3 |
| 20260508051005 | 47 | 225 | 0.0 | 0.0 | 0.00 | 0.00 | 0.00 | 94 | 1027.3 |
| 20260508050005 | 47 | 240 | 1.0 | 1.0 | 0.00 | 0.00 | 0.00 | 94 | 1027.3 |
| 20260508045005 | 47 | 218 | 1.0 | 2.0 | 0.00 | 0.00 | 0.00 | 94 | 1027.3 |
| 20260508044009 | 47 | 224 | 0.0 | 3.0 | 0.00 | 0.00 | 0.00 | 94 | 1027.3 |
| 20260508043005 | 47 | 236 | 0.0 | 3.0 | 0.00 | 0.00 | 0.00 | 94 | 1027.3 |
| 20260508041004 | 47 | 221 | 0.0 | 1.0 | 0.00 | 0.00 | 0.00 | 94 | 1027.3 |
| 20260508040006 | 47 | 224 | 0.0 | 3.0 | 0.00 | 0.00 | 0.00 | 94 | 1027.3 |
| 20260508033004 | 48 | 215 | 0.0 | 2.0 | 0.00 | 0.00 | 0.04 | 94 | 1027.3 |
| 20260508032004 | 48 | 239 | 0.0 | 2.0 | 0.00 | 0.00 | 0.04 | 94 | 1027.3 |
| 20260508030005 | 48 | 227 | 0.0 | 0.0 | 0.00 | 0.00 | 0.04 | 94 | 1027.3 |
| 20260508025005 | 48 | 213 | 0.0 | 1.0 | 0.00 | 0.00 | 0.04 | 93 | 1027.3 |
| 20260508024004 | 48 | 211 | 0.0 | 1.0 | 0.00 | 0.00 | 0.04 | 93 | 1027.3 |
| 20260508023004 | 48 | 211 | 0.0 | 2.0 | 0.00 | 0.00 | 0.04 | 93 | 1027.3 |
| 20260508022005 | 48 | 225 | 0.0 | 1.0 | 0.00 | 0.00 | 0.04 | 93 | 1027.3 |
| 20260508020005 | 49 | 222 | 0.0 | 1.0 | 0.00 | 0.00 | 0.04 | 93 | 1027.3 |
| 20260508015004 | 49 | 223 | 0.0 | 1.0 | 0.00 | 0.00 | 0.04 | 93 | 1027.3 |
| 20260508014004 | 48 | 223 | 0.0 | 0.0 | 0.00 | 0.00 | 0.04 | 92 | 1027.3 |
| 20260508012005 | 48 | 223 | 0.0 | 0.0 | 0.00 | 0.00 | 0.04 | 91 | 1027.3 |
| 20260508011005 | 49 | 223 | 0.0 | 0.0 | 0.00 | 0.00 | 0.04 | 90 | 1027.3 |
| 20260508005004 | 50 | 223 | 0.0 | 0.0 | 0.00 | 0.00 | 0.04 | 89 | 1027.3 |
| 20260508004005 | 50 | 223 | 0.0 | 0.0 | 0.00 | 0.00 | 0.04 | 87 | 1027.3 |
| 20260508002004 | 52 | 218 | 0.0 | 2.0 | 0.00 | 0.00 | 0.04 | 84 | 1027.3 |
| 20260508001004 | 52 | 225 | 0.0 | 0.0 | 0.00 | 0.00 | 0.04 | 79 | 1027.3 |
| 20260508000005 | 53 | 236 | 0.0 | 3.0 | 0.00 | 0.00 | 0.04 | 77 | 1027.3 |
| 20260507235004 | 54 | 250 | 0.0 | 3.0 | 0.00 | 0.00 | 0.04 | 77 | 1027.3 |
| 20260507234005 | 54 | 231 | 0.0 | 4.0 | 0.00 | 0.00 | 0.04 | 76 | 1027.3 |
| 20260507233004 | 55 | 194 | 3.0 | 5.0 | 0.00 | 0.00 | 0.04 | 75 | 1027.3 |
| 20260507232004 | 55 | 217 | 1.0 | 4.0 | 0.00 | 0.00 | 0.04 | 74 | 1027.3 |
| 20260507231004 | 55 | 178 | 1.0 | 5.0 | 0.00 | 0.00 | 0.04 | 77 | 1027.3 |
| 20260507230005 | 55 | 240 | 1.0 | 4.0 | 0.00 | 0.00 | 0.04 | 78 | 1027.3 |
| 20260507224004 | 56 | 225 | 2.0 | 5.0 | 0.00 | 0.00 | 0.04 | 82 | 1027.3 |
| 20260507223004 | 55 | 213 | 6.0 | 6.0 | 0.00 | 0.00 | 0.04 | 84 | 1027.3 |
| 20260507222005 | 55 | 221 | 2.0 | 8.0 | 0.00 | 0.00 | 0.04 | 83 | 1027.3 |
| 20260507221004 | 55 | 203 | 4.0 | 7.0 | 0.00 | 0.00 | 0.04 | 85 | 1027.3 |
| 20260507220005 | 55 | 244 | 3.0 | 8.0 | 0.00 | 0.00 | 0.04 | 86 | 1027.3 |
| 20260507215004 | 54 | 195 | 1.0 | 5.0 | 0.00 | 0.00 | 0.04 | 88 | 1027.3 |
| 20260507214005 | 54 | 224 | 2.0 | 5.0 | 0.00 | 0.00 | 0.04 | 86 | 1027.3 |
| 20260507213005 | 54 | 217 | 2.0 | 8.0 | 0.00 | 0.00 | 0.04 | 84 | 1027.3 |
| 20260507210006 | 54 | 144 | 0.0 | 6.0 | 0.00 | 0.00 | 0.04 | 84 | 1027.3 |
| 20260507204004 | 52 | 275 | 1.0 | 3.0 | 0.00 | 0.00 | 0.04 | 88 | 1027.3 |
| 20260507202005 | 52 | 233 | 0.0 | 4.0 | 0.00 | 0.00 | 0.04 | 87 | 1027.3 |
| 20260507201004 | 52 | 222 | 0.0 | 2.0 | 0.00 | 0.00 | 0.04 | 90 | 1027.3 |
| 20260507200006 | 52 | 244 | 2.0 | 3.0 | 0.00 | 0.00 | 0.04 | 90 | 1027.3 |
| 20260507195004 | 52 | 223 | 1.0 | 3.0 | 0.00 | 0.00 | 0.04 | 89 | 1027.3 |
| 20260507194004 | 52 | 229 | 0.0 | 2.0 | 0.00 | 0.00 | 0.04 | 90 | 1027.3 |
| 20260507193005 | 52 | 217 | 0.0 | 0.0 | 0.00 | 0.00 | 0.04 | 89 | 1027.3 |
| 20260507192004 | 52 | 81 | 0.0 | 1.0 | 0.00 | 0.00 | 0.04 | 90 | 1027.3 |
| 20260507191004 | 52 | 227 | 0.0 | 0.0 | 0.00 | 0.00 | 0.04 | 91 | 1027.3 |
| 20260507185005 | 51 | 226 | 0.0 | 0.0 | 0.00 | 0.00 | 0.04 | 91 | 1027.3 |
| 20260507184005 | 51 | 214 | 0.0 | 0.0 | 0.00 | 0.00 | 0.04 | 92 | 1027.3 |
| 20260507183005 | 51 | 278 | 0.0 | 0.0 | 0.00 | 0.00 | 0.04 | 92 | 1027.3 |
| 20260507182005 | 51 | 4 | 0.0 | 0.0 | 0.00 | 0.00 | 0.04 | 92 | 1027.3 |
| 20260507181005 | 51 | 25 | 0.0 | 5.0 | 0.00 | 0.00 | 0.04 | 92 | 1027.3 |
| 20260507180006 | 51 | 299 | 0.0 | 2.0 | 0.00 | 0.00 | 0.04 | 92 | 1027.3 |
| 20260507175006 | 52 | 352 | 0.0 | 4.0 | 0.00 | 0.00 | 0.04 | 92 | 1027.3 |
| 20260507173005 | 52 | 283 | 0.0 | 2.0 | 0.00 | 0.00 | 0.04 | 92 | 1027.3 |
| 20260507172005 | 52 | 304 | 0.0 | 3.0 | 0.00 | 0.00 | 0.04 | 92 | 1027.3 |
| 20260507171004 | 52 | 18 | 0.0 | 0.0 | 0.00 | 0.00 | 0.04 | 92 | 1027.3 |
| 20260507170006 | 52 | 13 | 0.0 | 4.0 | 0.00 | 0.00 | 0.04 | 92 | 1027.3 |
| 20260507165005 | 53 | 286 | 0.0 | 2.0 | 0.00 | 0.00 | 0.04 | 92 | 1027.3 |
| 20260507164005 | 53 | 1 | 0.0 | 1.0 | 0.00 | 0.00 | 0.04 | 93 | 1027.3 |
| 20260507163004 | 52 | 17 | 0.0 | 0.0 | 0.00 | 0.00 | 0.04 | 93 | 1027.3 |
| 20260507162004 | 52 | 18 | 0.0 | 2.0 | 0.00 | 0.00 | 0.04 | 92 | 1027.3 |
| 20260507161004 | 52 | 329 | 0.0 | 3.0 | 0.00 | 0.00 | 0.04 | 93 | 1027.3 |
| 20260507160004 | 52 | 8 | 0.0 | 4.0 | 0.00 | 0.00 | 0.04 | 93 | 1027.3 |
| 20260507155004 | 52 | 63 | 2.0 | 4.0 | 0.00 | 0.00 | 0.04 | 93 | 1027.3 |
| 20260507154004 | 52 | 33 | 1.0 | 3.0 | 0.00 | 0.00 | 0.04 | 93 | 1027.3 |
| 20260507152005 | 50 | 23 | 2.0 | 6.0 | 0.00 | 0.00 | 0.04 | 93 | 1027.3 |
| 20260507151003 | 50 | 359 | 3.0 | 4.0 | 0.00 | 0.00 | 0.04 | 93 | 1027.3 |
| 20260507150005 | 51 | 5 | 0.0 | 6.0 | 0.00 | 0.00 | 0.04 | 93 | 1027.3 |
| 20260507145003 | 52 | 3 | 1.0 | 4.0 | 0.00 | 0.00 | 0.04 | 93 | 1027.3 |
| 20260507144004 | 52 | 46 | 1.0 | 6.0 | 0.00 | 0.00 | 0.04 | 93 | 1027.3 |
| 20260507143301 | 54 | 13 | 1.0 | 255.0 | 0.00 | 0.00 | 0.04 | 93 | 1027.3 |
| 20260507142508 | 54 | 223 | 255.0 | 255.0 | 0.00 | 0.00 | 0.04 | 93 | 1027.3 |
| 20260507141003 | 54 | 223 | 255.0 | 255.0 | 0.00 | 0.00 | 0.04 | 93 | 1027.3 |
| 20260507140013 | 54 | 223 | 255.0 | 255.0 | 0.00 | 0.00 | 0.04 | 93 | 1027.3 |